STARLINK-5798, 56040

Orbit data source: Space-Track

STARLINK-5798, 56040 is a payload satellite owned by SpaceX/Seattle (US) in LEO that was launched on Fri, 24 Mar 2023 UTC via an FALCON 9 launch vehicle from the Air Force Eastern Test Range (AFETR). Payload-class satellites include a variety of spacecraft equipped with specific instruments for various scientific and technological missions. These include communications satellites like Starlink; space stations such as the ISS; scientific satellites like the Hubble; Earth observation satellites from companies like Planet Labs, Umbra, and HawkEye 360; GPS; miniature CubeSats for education and research; and military/defense satellites.

Loading next visibility...
Identifier
56040, 2023-042BG
Orbit
LEO
Country
Flag of USUS
Related business
Manufacturer
SpaceX/Seattle
Mission
Operational Commercial Communications
Bus & Motor
STARLINK, Unknown motor
Mass
305 kg wet, ~290 kg dry
Launch date (UTC)
2023-03-24 (3 years ago)
Launch vehicle
FALCON 9
Launch site
Air Force Eastern Test Range (AFETR)
Object type
Payload
Rocket body
Debris
Shape & HBR
Box + 1 Pan, 10.1 m
Radar Cross Section
11.087 m², Large (>1 m²)

Expand to show TLE details & history
Last TLE update: 2 days ago

TLE from 2 days ago
0 STARLINK-5798
1 56040U 23042BG  26171.31252985 -.00000539  00000-0 -10071-4 0  9990
2 56040  43.0035 171.4655 0001636 293.1369  66.9310 15.27574916178895
Epoch: 2026-06-20T07:30Z
TLE epoch observation values (Epoch: 2026-06-20T07:30:02.579Z)
Latitude
-0.00001°
Longitude
150.42578°
Altitude
482.401 km
Speed
7.626 km/s
True Right ascension
11h 25m 51s
True Declination
0° 00' 00"
Sunlit
Object was in daylight at epoch
Visualization orbit readout
Latitude
Unknown
Longitude
Unknown
Altitude
Unknown
Speed
Unknown
Apparent Right ascension
Unknown
Apparent Declination
Unknown
Sunlit
N/A
Visualization observer readout
Local Sidereal Time
21:25:41
Azimuth
Unknown
Elevation
Unknown
Doppler factor
Unknown
Orbital elements
Apogee altitude
486.132 km
Perigee altitude
483.886 km
Semi-major axis
6,863.146 km
Eccentricity
0.00016
Inclination
43.0035°
RAAN
171.4655°
Arg. of periapsis
293.1369°
True anomaly
66.94825°
Mean anomaly
66.931°
Eccentric anomaly
66.93962°
Mean motion
3.81732 °/min
Orbital period
94.31 mins
BSTAR
-0.000010071
Loading maneuver chart data...
Computing Atmospheric mass density...
Loading historical data...
Loading historical data...
Loading historical data...
Loading historical data...
Loading historical data...
Loading historical data...
Loading historical data...

Documentation

Showing up to 5 results
|